Regional Weather Roundup
Issued by NWS Austin/San Antonio, TX

Home | Current Version | Previous Version | Text Only | Print | Product List | Glossary On
Versions: 1 2 3 4 5 6 7 8 9 10 11 12 13 14 15 16 17 18 19 20 21 22 23 24 25 26 27 28 29 30 31 32 33 34 35 36 37 38 39 40 41 42 43 44 45 46 47 48 49 50
698
ASUS44 KEWX 220211
RWREWX
SOUTH TEXAS REGIONAL WEATHER ROUNDUP
NATIONAL WEATHER SERVICE AUSTIN/SAN ANTONIO TX
900 PM CDT MON OCT 21 2019

NOTE: "FAIR" INDICATED FEW OR NO CLOUDS BELOW 12,000 FEET WITH NO
SIGNIFICANT WEATHER AND/OR OBSTRUCTIONS TO VISIBILITY.

* - THESE STATIONS ARE NOT NWS OR FAA STATIONS...AND ARE NOT SUBJECT
    TO NWS AND FAA QUALITY CONTROL.

TXZ171-172-183>190-220300-
TEXAS HILL COUNTRY AND EDWARDS PLATEAU

CITY           SKY/WX    TMP DP  RH WIND       PRES   REMARKS
JUNCTION       CLEAR     56  49  77 CALM      30.01R
*LLANO         CLEAR     59  43  55 CALM      30.04R
BURNET         CLEAR     60  40  47 N5        30.04R
*HORSESHOE BAY CLEAR     55  46  71 CALM      30.02R
*KERRVILLE     CLEAR     59  41  51 CALM      30.01R
*FREDERICKSBRG CLEAR     57  44  62 CALM      30.02R
*ROCKSPRINGS   CLEAR     61  30  31 E5        30.06R
*BOERNE        CLEAR     54  46  76 CALM      30.02R
*CASTROVILLE   CLEAR     68  37  31 CALM      29.99R
HONDO          CLEAR     66  40  38 E8        29.97R
*UVALDE        CLEAR     69  39  32 E6        29.97R
DEL RIO        CLEAR     66  38  35 CALM      29.94R
LAUGHLIN AFB   CLEAR     68  36  30 NE8       29.94R HAZE
SPOFFORD       CLEAR     65  38  36 NE8       29.90R
*EAGLE PASS    CLEAR     66  34  30 CALM      29.95R
CARRIZO SPRGS  CLEAR     70  43  37 E3        29.94R
*FAITH RANCH   CLEAR     72  45  37 E6        29.94R
$$

TXZ173-191>194-202-209-217>225-228-220300-
CENTRAL AND SOUTH CENTRAL TEXAS

CITY           SKY/WX    TMP DP  RH WIND       PRES   REMARKS
GEORGETOWN     CLEAR     64  39  39 N6        30.04R
AUSTIN/BERGSTM CLEAR     57  44  62 CALM      30.00R
AUSTIN/MABRY   CLEAR     66  40  38 NE3       30.01R
*AUSTIN/EXEC   CLEAR     63  39  42 NE6       30.02R
*LAGO VISTA    CLEAR     61  39  43 NE6       30.02R
SAN MARCOS     CLEAR     58  42  55 NE8       30.01R
NEW BRAUNFELS  CLEAR     64  41  42 NE7       29.98R
RANDOLPH AFB   CLEAR     65  40  39 NE6       29.99R
SEGUIN         CLEAR     63  41  44 NE6       30.03R
KELLY FIELD    CLEAR     69  41  35 E3        29.96R
SAN ANTONIO    CLEAR     68  39  34 NE3       29.99R
STINSON FIELD  CLEAR     69  39  33 E6        29.96R
PLEASANTON     CLEAR     66  40  38 NE3       29.97R
*LA GRANGE     CLEAR     62  51  67 CALM      29.98R
*GIDDINGS      CLEAR     69  42  37 N3        30.01R
*GONZALES      CLEAR     66  43  43 NE5       29.99R
$$

TXZ163>164-176>182-195>201-210>213-226-227-235-220300-
SOUTHEAST TEXAS

CITY           SKY/WX    TMP DP  RH WIND       PRES   REMARKS
COLLEGE STN    CLEAR     64  43  46 N7        30.01R
*BRYAN         CLEAR     65  44  45 N5        30.03R
*CALDWELL      CLEAR     63  43  47 N6        30.02R
*CROCKETT      CLEAR     54  50  87 CALM      30.05R
*BRENHAM       CLEAR     67  45  45 N6        30.00R
HUNTSVILLE     CLEAR     60  49  66 CALM      30.00R
CONROE         CLEAR     57  55  93 CALM      29.99R
HOUSTON BUSH   PTCLDY    69  53  56 N6        29.96R
HOUSTON HOBBY  FAIR      70  55  59 N8        29.96R
*HOUSTON SW AP FAIR      67  55  65 N3        29.97R
PEARLAND       FAIR      66  60  81 N3        29.98R
HOUSTON HOOKS  FAIR      64  51  62 CALM      29.98R
ELLINGTON FLD  PTCLDY    72  55  56 N5        29.95R
SUGAR LAND     FAIR      63  56  78 CALM      29.96R
*HOUSTON EXEC  FAIR      61  54  77 N5        29.99R
*CLEVELAND MUN FAIR      62  62 100 CALM      29.99R
*WHARTON       CLEAR     62  49  61 N6        29.97R
*COLUMBUS      FAIR      55  38  51 CALM      29.99R
*EAGLE LAKE    CLEAR     66  51  57 N5        29.98
$$

TXZ214>216-236>238-220300-
THE UPPER TEXAS COAST

CITY           SKY/WX    TMP DP  RH WIND       PRES   REMARKS
*ORANGE        FAIR      64  64 100 CALM      29.97R
PORT ARTHUR    FAIR      65  62  90 CALM      29.95R
GALVESTON      FAIR      73  67  81 N8        29.95R
ANGLETON       FAIR      66  63  90 N5        29.95R
*BAY CITY      CLEAR     68  60  75 N7        29.95R
PALACIOS       NOT AVBL
$$

TXZ229>234-239>247-220300-
TEXAS COASTAL BEND AND RIO GRANDE PLAINS

CITY           SKY/WX    TMP DP  RH WIND       PRES   REMARKS
VICTORIA       CLEAR     64  52  64 N9        29.96R
*BEEVILLE      CLEAR     69  46  43 NE6       29.95R
ROCKPORT       CLEAR     75  60  59 NE8       29.93R
*PORT ARANSAS  CLEAR     76  60  58 NE8       29.94R
*PORT LAVACA   CLEAR     70  57  62 N8        29.95R
*INGLESIDE     CLEAR     74  62  66 NE8       29.94R
CORPUS CHRISTI PTCLDY    76  51  41 NE10      29.93R
CORPUS NAS     PTCLDY    77  66  68 NE13      29.92R
*ROBSTOWN      CLEAR     76  51  41 NE7       29.94R
ALICE          CLEAR     72  45  37 NE8       29.93R
KINGSVILLE NAS MOCLDY    74  60  61 E6        29.92R
COTULLA        CLEAR     74  38  27 E8        29.95R
LAREDO         CLEAR     78  39  24 NE10      29.93R
$$

TXZ248>255-220300-
DEEP SOUTH TEXAS

CITY           SKY/WX    TMP DP  RH WIND       PRES   REMARKS
BROWNSVILLE    FAIR      78  70  76 NE10      29.87R
PORT ISABEL    FAIR      78  69  73 N13G22    29.88R
HARLINGEN      CLEAR     75  68  78 NE12      29.88R
*HEBBRONVILLE  CLEAR     72  43  35 CALM      29.95R
MCALLEN        CLEAR     78  64  61 NE10      29.90R
*WESLACO       PTCLDY    74  66  75 NE8       29.89
FALFURRIAS     CLEAR     76  58  52 NE5       29.92R
EDINBURG       FAIR      74  65  73 NE7       29.91R
*ZAPATA        NOT AVBL
$$

TXZ213>215-236>238-242>244-246-247-251-254-255-220300-
CMAN STATIONS

STATION/POSITION TIME  TEMP    WIND        PRES    WAVE
                       AIR SEA DIR/SP/G            HT/PER
                 (UTC) (F)     (DEG/KT/KT) (MB)    (FT/S)
SABINE PASS      0130   69 77   80/  3/  5 1015.6
SEA RIM ST PARK  0200   68      80/  4/  5 1014.2
NORTH JETTY/GLS  0124   74 76   60/  9/ 11 1012.6
EAGLE POINT      0130   74 76   10/  8/ 12 1013.3
MORGANS POINT    0130   72 77   10/  7/  9 1014.1
PORT O`CONNOR    0130   77 79   20/ 14/ 17 1013.0
PORT ARANSAS     0200   78 78   30/ 17/ 19 1013.2
MALAQUITE BEACH  0130   79 81   20/ 16/ 18 1012.6
BAFFIN BAY       0130   78 81   30/ 12/ 16 1012.8
PORT ISABEL      0130   78 81   20/ 14/ 19 1011.3
$$




USA.gov is the U.S. government's official web portal to all federal, state and local government web resources and services.